User: anonymous   Login
Location: Unspecified
(0.0000°N, 0.0000°E)
Time: 07:29:47
(UTC+01:00)
Language:

Cosmos 1833 Rocket - Orbit

View from above orbital plane
View from above orbital plane
View from above satellite
View from above satellite

Ground track
Ground track

The orbit data is extracted from the following two-line orbital elements,

1 17590U 87027B   15062.58288222  .00000138  00000-0  93201-4 0  9998
2 17590 071.0024 111.5813 0003940 166.7934 193.3293 14.16683695445631
Epoch (UTC): 03 March 2015 13:59:21
Eccentricity: 0.0003940
inclination: 71.0024°
perigee height: 834 km
apogee height: 839 km
right ascension of ascending node: 111.5813°
argument of perigee: 166.7934°
revolutions per day: 14.16683695
mean anomaly at epoch: 193.3293°
orbit number at epoch: 44563

The dashed part of the orbit path shows where the satellite is in the earth's shadow,  

DLR